STARLINK-36946, 68382

Orbit data source: Space-Track

STARLINK-36946, 68382 is a payload satellite owned by SpaceX/Seattle (US) in SSO that was launched on Thu, 26 Mar 2026 UTC via an FALCON 9 launch vehicle from the Air Force Western Test Range (AFWTR). Payload-class satellites include a variety of spacecraft equipped with specific instruments for various scientific and technological missions. These include communications satellites like Starlink; space stations such as the ISS; scientific satellites like the Hubble; Earth observation satellites from companies like Planet Labs, Umbra, and HawkEye 360; GPS; miniature CubeSats for education and research; and military/defense satellites.

Loading next visibility...
Identifier
68382, 2026-063C
Orbit
SSO
Country
Flag of USUS
Related business
Manufacturer
SpaceX/Seattle
Mission
Operational spacecraft
Bus & Motor
STARLINK V2MO, Unknown motor
Mass
575 kg wet, ~530 kg dry
Launch date (UTC)
2026-03-26 (3 months ago)
Launch vehicle
FALCON 9
Launch site
Air Force Western Test Range (AFWTR)
Object type
Payload
Rocket body
Debris
Shape & HBR
Unknown shape, 17.7 m
Radar Cross Section
Large (>1 m²)

Expand to show TLE details & history
Last TLE update: 5 hours ago

TLE from 5 hours ago
0 STARLINK-36946
1 68382U 26063C   26165.95643742  .00019197  00000-0  59528-3 0  9993
2 68382  97.2844 308.2561 0001209  86.8631 273.2750 15.33454052 12801
Epoch: 2026-06-14T22:57Z
TLE epoch observation values (Epoch: 2026-06-14T22:57:16.193Z)
Latitude
-0.00001°
Longitude
60.68889°
Altitude
468.581 km
Speed
7.632 km/s
True Right ascension
20h 33m 01s
True Declination
0° 00' 00"
Sunlit
Object was in full shadow at epoch
Visualization orbit readout
Latitude
Unknown
Longitude
Unknown
Altitude
Unknown
Speed
Unknown
Apparent Right ascension
Unknown
Apparent Declination
Unknown
Sunlit
N/A
Visualization observer readout
Local Sidereal Time
14:20:33
Azimuth
Unknown
Elevation
Unknown
Doppler factor
Unknown
Orbital elements
Apogee altitude
463.286 km
Perigee altitude
461.632 km
Semi-major axis
6,840.596 km
Eccentricity
0.00012
Inclination
97.2844°
RAAN
308.2561°
Arg. of periapsis
86.8631°
True anomaly
273.26117°
Mean anomaly
273.275°
Eccentric anomaly
273.26808°
Mean motion
3.83621 °/min
Orbital period
93.84 mins
BSTAR
0.00059528
Loading maneuver chart data...
Computing Atmospheric mass density...
Loading historical data...
Loading historical data...
Loading historical data...
Loading historical data...
Loading historical data...
Loading historical data...
Loading historical data...

Documentation

Showing up to 5 results
|